Stanley, ND

4:16 PM CDT on June 24, 2017 (GMT -0500)
Stanley

Weather History for K08D - February, 2013

Change the Weather History Date:

Monday, February 18, 2013

  Actual Average (KMIB) Record (KMIB)
Temperature  
Mean Temperature 6 °F -  
Max Temperature 17 °F 24 °F 44 °F (2012)
Min Temperature -5 °F 8 °F -17 °F (2008)
Degree Days  
Heating Degree Days 58    
Moisture  
Dew Point 2 °F    
Average Humidity 83    
Maximum Humidity 100    
Minimum Humidity 71    
Precipitation  
Precipitation 0.16 in - - ()
Sea Level Pressure  
Sea Level Pressure 30.03 in    
Wind  
Wind Speed 19 mph (North)    
Max Wind Speed 26 mph    
Max Gust Speed 31 mph    
Visibility 9 miles    
Events Rain , Snow    
Averages and records for this station are not official NWS values.
T = Trace of Precipitation, MM = Missing Value Source: NWS Daily Summary

Daily Weather History Graph

Daily Weather History Graph

Search for Another Location

Airport or City:

Trip Planner

Search our weather history database for the weather conditions in past years. The results will help you decide how hot, cold, wet, or windy it might be!

Date:

Astronomy

Feb. 18, 2013 Rise Set
Actual Time 7:50 AM CST 6:16 PM CST
Civil Twilight 7:18 AM CST 6:48 PM CST
Nautical Twilight 6:42 AM CST 7:25 PM CST
Astronomical Twilight 6:06 AM CST 8:01 PM CST
Moon 11:50 AM CST (2/18) 2:45 AM CST (2/18)
Length of Visible Light 11h 29m
Length of Day
10h 26m
First Quarter, 58% of the Moon is Illuminated
Feb 18
First Quarter
Feb 25
Full
Mar 4
Last Quarter
Mar 11
New
Mar 19
First Quarter

Hourly Weather History & Observations

Time (CST) Temp. Windchill Dew Point Humidity Pressure Visibility Wind Dir Wind Speed Gust Speed Precip Events Conditions
12:15 AM 17.6 °F 0.1 °F 15.8 °F 93% 29.71 in 3.0 mi North 23.0 mph 31.1 mph 0.01 in Snow Light Snow
12:35 AM 15.8 °F -1.5 °F 15.8 °F 100% 29.73 in 6.0 mi North 20.7 mph 27.6 mph 0.01 in Snow Light Snow
12:55 AM 15.8 °F -1.5 °F 14.0 °F 93% 29.75 in 8.0 mi North 20.7 mph - 0.02 in Snow Light Snow
1:15 AM 15.8 °F -1.5 °F 14.0 °F 93% 29.76 in 7.0 mi North 20.7 mph - N/A Snow Light Snow
1:35 AM 15.8 °F 0.9 °F 14.0 °F 93% 29.78 in 10.0 mi NNW 15.0 mph - N/A Rain Light Freezing Rain
1:55 AM 15.8 °F 0.3 °F 14.0 °F 93% 29.79 in 10.0 mi NNW 16.1 mph 21.9 mph 0.01 in Rain Light Freezing Rain
2:15 AM 15.8 °F -1.5 °F 14.0 °F 93% 29.80 in 10.0 mi NNW 20.7 mph 28.8 mph N/A Rain Light Freezing Rain
2:35 AM 15.8 °F 0.3 °F 12.2 °F 86% 29.82 in 10.0 mi NNW 16.1 mph - N/A Rain Light Freezing Rain
2:55 AM 14.0 °F -2.5 °F 12.2 °F 93% 29.83 in 10.0 mi NNW 17.3 mph 23.0 mph 0.01 in Snow Light Snow
3:15 AM 14.0 °F -3.4 °F 12.2 °F 93% 29.84 in 8.0 mi NNW 19.6 mph 24.2 mph 0.01 in Snow Light Snow
3:35 AM 14.0 °F -5.1 °F 10.4 °F 86% 29.85 in 4.0 mi NNW 24.2 mph 28.8 mph 0.04 in Snow Light Snow
3:55 AM 14.0 °F -3.9 °F 10.4 °F 86% 29.86 in 7.0 mi NNW 20.7 mph 28.8 mph 0.06 in Snow Light Snow
4:15 AM 12.2 °F -4.8 °F 10.4 °F 92% 29.87 in 10.0 mi NNW 17.3 mph - N/A Snow Light Snow
4:35 AM 12.2 °F -4.8 °F 8.6 °F 85% 29.88 in 7.0 mi NNW 17.3 mph 23.0 mph 0.02 in Snow Light Snow
4:55 AM 12.2 °F -5.8 °F 8.6 °F 85% 29.89 in 10.0 mi NNW 19.6 mph 25.3 mph 0.05 in Snow Light Snow
5:15 AM 10.4 °F -7.2 °F 8.6 °F 92% 29.90 in 10.0 mi NNW 17.3 mph 23.0 mph N/A Rain Light Freezing Rain
5:35 AM 10.4 °F -7.2 °F 8.6 °F 92% 29.91 in 10.0 mi NNW 17.3 mph - N/A Rain Light Freezing Rain
5:55 AM 10.4 °F -7.7 °F 8.6 °F 92% 29.91 in 10.0 mi North 18.4 mph 23.0 mph N/A Rain Light Freezing Rain
6:15 AM 10.4 °F -8.2 °F 8.6 °F 92% 29.92 in 10.0 mi North 19.6 mph - N/A Rain Light Freezing Rain
6:35 AM 10.4 °F -9.1 °F 6.8 °F 85% 29.93 in 10.0 mi North 21.9 mph - N/A Rain Light Freezing Rain
6:55 AM 10.4 °F -9.1 °F 6.8 °F 85% 29.94 in 10.0 mi North 21.9 mph 25.3 mph N/A Rain Light Freezing Rain
7:15 AM 10.4 °F -9.1 °F 6.8 °F 85% 29.94 in 10.0 mi North 21.9 mph 25.3 mph N/A Rain Light Freezing Rain
7:35 AM 8.6 °F -9.5 °F 6.8 °F 92% 29.95 in 10.0 mi NNW 17.3 mph - N/A Rain Light Freezing Rain
7:55 AM 8.6 °F -8.9 °F 6.8 °F 92% 29.96 in 10.0 mi NNW 16.1 mph 23.0 mph N/A Rain Light Freezing Rain
8:15 AM 8.6 °F -8.3 °F 5.0 °F 85% 29.97 in 10.0 mi NNW 15.0 mph 19.6 mph N/A Rain Light Freezing Rain
8:35 AM 8.6 °F -8.3 °F 5.0 °F 85% 29.99 in 10.0 mi NNW 15.0 mph - N/A Rain Light Freezing Rain
8:55 AM 8.6 °F -8.9 °F 5.0 °F 85% 29.99 in 10.0 mi NNW 16.1 mph - N/A Rain Light Freezing Rain
9:15 AM 8.6 °F -10.0 °F 5.0 °F 85% 30.00 in 10.0 mi North 18.4 mph - N/A Rain Light Freezing Rain
9:35 AM 8.6 °F -10.5 °F 5.0 °F 85% 30.01 in 10.0 mi North 19.6 mph - N/A Rain Light Freezing Rain
9:55 AM 8.6 °F -11.4 °F 5.0 °F 85% 30.01 in 10.0 mi North 21.9 mph - N/A Rain Light Freezing Rain
10:15 AM 8.6 °F -11.0 °F 5.0 °F 85% 30.02 in 10.0 mi North 20.7 mph 24.2 mph N/A Rain Light Freezing Rain
10:35 AM 8.6 °F -9.5 °F 5.0 °F 85% 30.02 in 7.0 mi North 17.3 mph 24.2 mph N/A Rain Light Freezing Rain
10:55 AM 8.6 °F -10.0 °F 5.0 °F 85% 30.03 in 10.0 mi North 18.4 mph - N/A Rain Light Freezing Rain
11:15 AM 8.6 °F -11.4 °F 5.0 °F 85% 30.03 in 10.0 mi North 21.9 mph 26.5 mph N/A Rain Light Freezing Rain
11:35 AM 8.6 °F -11.4 °F 5.0 °F 85% 30.04 in 6.0 mi North 21.9 mph 25.3 mph N/A Rain Light Freezing Rain
11:55 AM 6.8 °F -15.5 °F 3.2 °F 85% 30.04 in 3.0 mi North 26.5 mph - N/A Rain Light Freezing Rain
12:15 PM 6.8 °F -14.7 °F 1.4 °F 79% 30.05 in 5.0 mi North 24.2 mph - 0.01 in Rain Light Freezing Rain
12:35 PM 6.8 °F -14.3 °F 1.4 °F 79% 30.06 in 10.0 mi North 23.0 mph - 0.01 in Rain Light Freezing Rain
12:55 PM 6.8 °F -13.4 °F 1.4 °F 79% 30.06 in 10.0 mi North 20.7 mph - 0.01 in Rain Light Freezing Rain
1:15 PM 6.8 °F -13.8 °F 1.4 °F 79% 30.07 in 10.0 mi North 21.9 mph - N/A Rain Light Freezing Rain
1:35 PM 6.8 °F -11.8 °F 1.4 °F 79% 30.07 in 10.0 mi North 17.3 mph - N/A Rain Light Freezing Rain
1:55 PM 6.8 °F -13.8 °F -0.4 °F 72% 30.07 in 10.0 mi North 21.9 mph - N/A Rain Light Freezing Rain
2:15 PM 6.8 °F -12.4 °F -0.4 °F 72% 30.08 in 10.0 mi NNW 18.4 mph - N/A   Partly Cloudy
2:35 PM 6.8 °F -11.3 °F -0.4 °F 72% 30.09 in 10.0 mi NNW 16.1 mph - N/A   Clear
2:55 PM 6.8 °F -12.4 °F -0.4 °F 72% 30.09 in 10.0 mi NNW 18.4 mph 23.0 mph N/A   Clear
3:15 PM 6.8 °F -11.3 °F -0.4 °F 72% 30.10 in 10.0 mi NNW 16.1 mph 20.7 mph N/A   Clear
3:35 PM 5.0 °F -13.6 °F -0.4 °F 78% 30.11 in 10.0 mi NNW 16.1 mph - N/A   Clear
3:55 PM 5.0 °F -13.6 °F -0.4 °F 78% 30.12 in 10.0 mi NNW 16.1 mph - N/A   Partly Cloudy
4:15 PM 5.0 °F -13.6 °F -0.4 °F 78% 30.13 in 10.0 mi North 16.1 mph 20.7 mph N/A   Scattered Clouds
4:35 PM 5.0 °F -13.0 °F -0.4 °F 78% 30.13 in 10.0 mi North 15.0 mph - N/A   Clear
4:55 PM 5.0 °F -13.0 °F -0.4 °F 78% 30.14 in 10.0 mi North 15.0 mph - N/A   Clear
5:15 PM 3.2 °F -15.3 °F -0.4 °F 85% 30.14 in 10.0 mi North 15.0 mph - N/A   Clear
5:35 PM 1.4 °F -18.2 °F -2.2 °F 85% 30.15 in 10.0 mi North 16.1 mph - N/A   Clear
5:55 PM 1.4 °F -16.1 °F -2.2 °F 85% 30.16 in 10.0 mi North 12.7 mph - N/A   Clear
6:15 PM 1.4 °F -16.1 °F -4.0 °F 78% 30.17 in 10.0 mi North 12.7 mph - N/A   Clear
6:35 PM -0.4 °F -15.7 °F -4.0 °F 85% 30.17 in 10.0 mi NNW 9.2 mph - N/A   Clear
6:55 PM -0.4 °F -19.2 °F -4.0 °F 85% 30.18 in 10.0 mi North 13.8 mph - N/A   Clear
7:15 PM -0.4 °F -18.4 °F -4.0 °F 85% 30.19 in 10.0 mi NNW 12.7 mph - N/A   Clear
7:35 PM -2.2 °F -22.2 °F -5.8 °F 85% 30.19 in 10.0 mi North 15.0 mph - N/A   Clear
7:55 PM -2.2 °F -22.2 °F -7.6 °F 78% 30.19 in 10.0 mi North 15.0 mph - N/A   Clear
8:15 PM -2.2 °F -19.9 °F -7.6 °F 78% 30.20 in 10.0 mi North 11.5 mph - N/A   Clear
8:35 PM -2.2 °F -20.7 °F -7.6 °F 78% 30.20 in 10.0 mi North 12.7 mph - N/A   Clear
8:55 PM -4.0 °F -21.2 °F -9.4 °F 78% 30.21 in 10.0 mi North 10.4 mph - N/A   Clear
9:15 PM -4.0 °F -21.2 °F -9.4 °F 78% 30.21 in 10.0 mi North 10.4 mph - N/A   Clear
9:35 PM -4.0 °F -23.0 °F -9.4 °F 78% 30.22 in 10.0 mi North 12.7 mph - N/A   Clear
9:55 PM -4.0 °F -24.5 °F -9.4 °F 78% 30.22 in 10.0 mi North 15.0 mph - N/A   Clear
10:15 PM -4.0 °F -24.5 °F -9.4 °F 78% 30.22 in 10.0 mi North 15.0 mph - N/A   Clear
10:35 PM -4.0 °F -24.5 °F -9.4 °F 78% 30.23 in 10.0 mi North 15.0 mph - N/A   Clear
10:55 PM -4.0 °F -23.7 °F -9.4 °F 78% 30.23 in 10.0 mi North 13.8 mph - N/A   Clear
11:15 PM -4.0 °F -23.7 °F -11.2 °F 71% 30.24 in 10.0 mi North 13.8 mph - N/A   Clear
11:35 PM -4.0 °F -23.7 °F -11.2 °F 71% 30.25 in 10.0 mi NNE 13.8 mph - N/A   Clear
11:55 PM -5.8 °F -23.4 °F -11.2 °F 77% 30.26 in 10.0 mi NNE 10.4 mph - N/A   Clear